Regional Weather Roundup
Issued by NWS

Home | Current Version | Previous Version | Graphics & Text | Print | Product List | Glossary On
Versions: 1 2 3 4 5 6 7 8 9 10 11 12 13 14 15 16 17 18 19 20 21 22 23 24 25 26 27
000
ASUS45 KPSR 290210
RWRAZ

ARIZONA HOURLY REGIONAL WEATHER ROUNDUP
NATIONAL WEATHER SERVICE PHOENIX AZ
700 PM MST THU JUL 28 2016

NOTE: FAIR INDICATES FEW OR NO CLOUDS BELOW 12,000 FEET WITH NO
SIGNIFICANT WEATHER AND/OR OBSTRUCTIONS TO VISIBILITY.

AZZ001>003-036-290300-
NORTHWEST ARIZONA

CITY           SKY/WX    TMP DP  RH WIND       PRES   REMARKS
BULLHEAD CITY  CLEAR    111  46  11 E38       29.65S HX 107
KINGMAN        MOCLDY    93  46  19 E24G40    29.98F
$$

AZZ004>008-015-016-018-290300-
NORTH CENTRAL ARIZONA

CITY           SKY/WX    TMP DP  RH WIND       PRES   REMARKS
GRAND CANYON   MOCLDY    82  41  23 CALM      30.25S
WILLIAMS       CLOUDY    79  41  25 W9G16     30.35R
PRESCOTT       CLOUDY    84  49  29 SW9       30.12S
FLAGSTAFF      CLOUDY    79  45  29 SW7       30.27R
PAYSON         CLOUDY    75  61  60 N3        30.15F
PAGE           PTCLDY   102  29   7 NW9       29.95S
$$

AZZ009>014-017-290300-
NORTHEAST ARIZONA

CITY           SKY/WX    TMP DP  RH WIND       PRES   REMARKS
WINSLOW        PTCLDY    95  43  16 S24       30.06R
SAINT JOHNS    MOCLDY    89  39  17 NW8       30.12R
WINDOW ROCK    MOCLDY    83  37  19 S9        30.22R
SHOW LOW       MOCLDY    75  39  27 S10       30.24R
$$

AZZ023-290300-
GREATER PHOENIX AREA

CITY           SKY/WX    TMP DP  RH WIND       PRES   REMARKS
PHOENIX        PTCLDY   108  55  17 CALM      29.72R HX 107
BUCKEYE        CLEAR    108  57  19 CALM      29.73R HX 107
GLENDALE       PTCLDY   109  54  16 S6        29.74  HX 108
DEER VALLEY    PTCLDY   108  54  16 VRB6      29.76R HX 106
SCOTTSDALE     CLEAR    107  53  16 CALM      29.79R HX 105
MESA-GATEWAY   PTCLDY   108  54  16 VRB5      29.75F HX 106
CHANDLER       CLEAR    108  55  18 N9        29.74S HX 106
$$

AZZ027-028-290300-
SOUTHWEST MARICOPA COUNTY AND PINAL COUNTY

CITY           SKY/WX    TMP DP  RH WIND       PRES   REMARKS
CASA GRANDE    CLEAR    108  54  16 N8        29.78S HX 106
$$

AZZ503-504-507>509-290300-
SOUTHEAST ARIZONA

CITY           SKY/WX    TMP DP  RH WIND       PRES   REMARKS
TUCSON         CLEAR    103  57  21 N6        29.86S HX 102
DAVIS-MONTHAN  PTCLDY   100  59  25 NW7       29.85S HX 100
RYAN FIELD     CLEAR    102  57  22 NW6       29.84S HX 101
NOGALES        CLEAR     91  56  30 SW6       29.97S
DOUGLAS        CLEAR     89  56  32 E5        29.99S
SAFFORD        CLOUDY    96  50  20 NE8       29.88S
$$

AZZ020-021-025-026-031-290300-
SOUTHWEST ARIZONA

CITY           SKY/WX    TMP DP  RH WIND       PRES   REMARKS
YUMA           PTCLDY   105  64  26 S12       29.68R HX 108
$$

CAZ031-033-041-043-047-048-061-290300-
SOUTHERN CALIFORNIA

CITY           SKY/WX    TMP DP  RH WIND       PRES   REMARKS
DOWNTOWN L.A.  SUNNY     78  63  59 VRB3      29.81S
L.A. AIRPORT   MOSUNNY   74  64  71 W13       29.82F
SAN DIEGO      PTCLDY    74  64  71 W9        29.84S
BURBANK        SUNNY     86  50  28 S9        29.82R
ONTARIO        PTCLDY    90  48  23 W13       29.82S
RIVERSIDE      CLEAR     90  52  27 W9        29.81R
PALM SPRINGS   CLEAR    111  48  12 NW9       29.68R HX 107
EL CENTRO NAS  PTCLDY   110  60  19 SE13      29.63S HX 111
IMPERIAL       CLEAR    111  66  23 SE14      29.61S HX 117
NEEDLES        MOCLDY   116  52  12 S16       29.68R HX 113
$$

NVZ020-UTZ003-290300-
SOUTHERN NEVADA-UTAH

CITY           SKY/WX    TMP DP  RH WIND       PRES   REMARKS
LAS VEGAS      MOCLDY   110  37   8 NW16G22   29.75R HX 103
SALT LAKE CITY CLEAR     98  31   9 N7        30.00S
$$

NMZ009-TXZ055-290300-
NEW MEXICO-WEST TEXAS

CITY           SKY/WX    TMP DP  RH WIND       PRES   REMARKS
ALBUQUERQUE    MOCLDY    89  43  20 SE7       30.10S
EL PASO        MOCLDY    92  52  25 E10       29.98S
$$


........................KEY........................
SKY/WX - SKY CONDITION/WEATHER
TMP    - TEMPERATURE IN FAHRENHEIT
DP     - DEW POINT IN FAHRENHEIT
RH     - RELATIVE HUMIDITY IN PERCENT
WIND   - DIRECTION AND SPEED IN MILES PER HOUR (MPH)
VRB    - VARIABLE WIND DIRECTION
PRES   - MEAN SEA LEVEL PRESSURE IN INCHES OF MERCURY
         F - FALLING PRESSURE   R - RISING PRESSURE
         S - STEADY PRESSURE
VSB    - VISIBILITY IN MILES
HX     - HEAT INDEX IN FAHRENHEIT
WCI    - WIND CHILL INDEX IN FAHRENHEIT
TC     - TEMPERATURE IN CELSIUS WHICH IS ALSO KNOWN AS
         TEMPERATURE IN CENTIGRADE
AFB    - AIR FORCE BASE
         LUKE AFB IS LUKE AIR FORCE BASE
         DAVIS-MONTHAN IS DAVIS-MONTHAN AIR FORCE BASE
NAS    - NAVAL AIR STATION
         EL CENTRO NAS IS EL CENTRO NAVAL AIR STATION
N/A    - NOT AVAILABLE





USA.gov is the U.S. government's official web portal to all federal, state and local government web resources and services.